sat.trackr.live / text

‹ back to catalog

STARLINK-5175

NORAD 54079 · 2022-136AE

PAYLOAD ACTIVE UNKNOWN

§ Identity

Operator
Country
US
Launch date
2022-10-20
Launch site
AFETR
Launch vehicle
Mass (kg)
RCS (m²)

Purposes: comms

External: N2YO · Heavens-Above · Gunter

§ Orbital elements

Epoch: 2026-05-24T22:48:11.600064Z

Period
95.44 min
Inclination
53.2142°
Eccentricity
0.0001495
Mean motion
15.08852493 rev/d
Perigee alt
538.7 km
Apogee alt
540.7 km
Semi-major
6,917.8 km
B*
-1.5090e-4
RAAN
351.9967°
Arg perigee
97.1142°
Mean anomaly
263.0020°
Rev number
19,849

§ Raw data

STARLINK-51751 54079U 22136AE  26144.95013426 -.00002690  00000+0 -15090-3 0  99922 54079  53.2142 351.9967 0001495  97.1142 263.0020 15.08852493198496

JSON: /api/v1/satellites/54079 · /tle

For live sub-satellite position, see the globe view (requires WebGL).

§ Visibility from observer

Set your observer location to see the next 7 days of passes ≥ 10°. The values pass through the URL so the page stays shareable.

No JS? Fill the form by hand. The geolocation button needs JavaScript.